Regional Weather Roundup
Issued by NWS New Orleans/Baton Rouge, LA

Home | Current Version | Previous Version | Text Only | Print | Product List | Glossary On
Versions: 1 2 3 4 5 6 7 8 9 10 11 12 13 14 15 16 17 18 19 20 21 22 23 24 25 26 27 28 29 30 31 32 33 34 35 36 37 38 39 40 41 42 43 44 45 46 47 48 49 50
000
ASUS44 KLIX 282011
RWRLIX
NEW ORLEANS REGIONAL WEATHER ROUNDUP
NATIONAL WEATHER SERVICE NEW ORLEANS LA
300 PM CDT FRI AUG 28 2015

NOTE: "FAIR" INDICATES FEW OR NO CLOUDS BELOW 12,000 FEET WITH NO
      SIGNIFICANT WEATHER AND/OR OBSTRUCTIONS TO VISIBILITY.
      SKY/WX - SKY CONDITION AND SIGNIFICANT WEATHER.
      TMP - AIR TEMPERATURE.     DP    - DEWPOINT TEMPERATURE.
      RH  - RELATIVE HUMIDITY.   PRES  - PRESSURE.
      HI  - HEAT INDEX.          WCI   - WIND CHILL INDEX.

*  THESE STATIONS ARE NOT NWS OR FAA STATIONS AND ARE NOT UNDER
   NWS QUALITY CONTROL.

LAZ038-040-048-061>063-065>067-069-282100-
SOUTHEAST LOUISIANA

CITY           SKY/WX    TMP DP  RH WIND       PRES   REMARKS
N.O. AUDUBON     N/A     91  67  46 MISG        N/A
N.O. INTL ARPT MOSUNNY   90  63  40 NE8       29.96F
N.O. LAKEFRONT SUNNY     88  67  49 NE5       29.97F
N.O. DOWNTOWN*   N/A     90  64  43 NE7       29.97F
RESERVE*         N/A     92  64  39 E3        29.97F
SLIDELL        PTSUNNY   90  69  50 NE6       29.95F
BATON ROUGE    SUNNY     88  61  40 CALM      29.98F
BOOTHVILLE     SUNNY     88  71  57 N6        29.96F
BELLE CHASSE   MOSUNNY   89  66  46 VRB6      29.96F
BOGALUSA*      NOT AVBL
GALLIANO*      CLEAR     91  64  41 N6        29.96F
NEW ROADS*       N/A     87  58  37 CALM      29.98F
GONZALES*        N/A     89  64  41 E5        29.96F
HAMMOND*       MOSUNNY   95  55  26 NE6       29.97F
HOUMA*         NOT AVBL
PORT FOURCHON* CLEAR     86  68  54 E5        29.97F

$$

MSZ070-080>082-282100-
SOUTHERN MISSISSIPPI

CITY           SKY/WX    TMP DP  RH WIND       PRES   REMARKS
MCCOMB         PTSUNNY   91  62  37 N7        29.98F
GULFPORT       MOSUNNY   87  65  47 SE14      29.97F
BILOXI         SUNNY     87  67  51 S13       29.97F
PASCAGOULA     SUNNY     88  66  48 SE10      29.98F
STENNIS ARPT*  MOSUNNY   88  63  42 SE9       29.97F

$$

COASTAL OBSERVATIONS
LAKE AND NEARSHORE STATIONS

STATION/POSITION TIME  TEMP    WIND        PRES    WAVE
                       AIR SEA DIR/SP/G            HT/PER
                 (UTC) (F)     (DEG/KT/KT) (MB)    (FT/S)

OFFSHORE STATIONS

STATION/POSITION TIME  TEMP    WIND        PRES    WAVE
                       AIR SEA DIR/SP/G            HT/PER
                 (UTC) (F)     (DEG/KT/KT) (MB)    (FT/S)
64 S DAUPHIN ISL 1950   82 88  170/  6/  8 1015.7    1

$$




USA.gov is the U.S. government's official web portal to all federal, state and local government web resources and services.